Location: Unspecified
(0.0000°N, 0.0000°E)
Time: 10:15:36
(UTC+02:00)

SJ-6B - Visible Passes

Search period start: 29 May 2015 00:00
Search period end: 08 June 2015 00:00
Orbit: 514 x 591 km, 97.8° (Epoch: 29 May)

Date Brightness Start Highest point End Pass type
(mag) Time Alt. Az. Time Alt. Az. Time Alt. Az.
29 May 6.0 21:15:55 10° SW 21:17:43 12° W 21:19:14 10° WNW visible
30 May 5.9 21:12:05 10° SW 21:14:18 14° W 21:16:16 10° WNW visible
31 May 5.8 21:08:20 10° SW 21:10:53 15° W 21:13:12 10° WNW visible
01 Jun 5.7 07:31:56 10° ENE 07:34:15 16° E 07:36:46 10° SE visible
01 Jun 5.7 21:04:40 10° SW 21:07:28 17° W 21:10:05 10° WNW visible
02 Jun 5.7 07:28:49 10° ENE 07:30:49 14° E 07:33:03 10° SE visible
02 Jun 5.6 21:01:02 10° SSW 21:04:03 19° W 21:06:54 10° NW visible
03 Jun 5.8 07:25:47 10° ENE 07:27:24 13° E 07:29:16 10° SE visible
03 Jun 5.4 20:57:25 10° SSW 21:00:38 21° W 21:03:41 10° NW visible
04 Jun 6.0 07:22:53 10° E 07:23:58 11° E 07:25:19 10° ESE visible
04 Jun 5.2 20:53:51 10° SSW 20:57:13 24° W 21:00:27 10° NW visible
05 Jun 5.0 20:50:17 10° SSW 20:53:48 27° W 20:57:10 10° NW visible
06 Jun 4.8 20:46:45 10° SSW 20:50:23 30° W 20:53:52 10° NW visible
07 Jun 4.6 20:43:14 10° SSW 20:46:58 34° WSW 20:50:33 10° NW visible
